Location: Barcelona
(41.3829°N, 2.1774°E)
Time: 11:31:01
(UTC+00:00)

ISS - Pass Details

Date: 23 February 2026
Orbit: 416 x 427 km, 51.6° (Epoch: 5 March)

Event Time Altitude Azimuth Distance (km) Brightness Sun altitude
Exits shadow 06:22:08 - 310° (NW) 2,264 -0.6 -3.2°
Maximum altitude 06:26:52 19° 15° (NNE) 1,078 -1.6 -2.4°
Drops below altitude 10° 06:29:19 10° 62° (ENE) 1,491 -0.1 -1.9°
Sets 06:31:51 0° 82° (E) 2,352 1.7 -1.4°
